Tracking 35334 objects as of 12-Sep-2026
HD Live streaming from Space Station
objects crossing your sky now

NOAA 17 DEB


NOAA 17 DEB is no longer on orbit


NORAD ID: 48764
Int'l Code: 2002-032DA
Launch date: June 24, 2002
Source: United States (US)
Launch site: AIR FORCE WESTERN TEST RANGE (AFWTR)
Decay date: 2023-11-25

Note: This is SATELLITE DEBRIS
Your satellite tracking list
Your tracking list is empty




NASA's NSSDC Master Catalog

Two Line Element Set (TLE):
1 48764U 02032CZ  23038.11578013  .00080869  00000-0  11765-1 0  9990
2 48764  98.4304   5.3025 0088537  27.6448 332.9425 14.72812074 96656
Source of the keplerian elements: AFSPC